ANA315 RJTT-RJNT

Flight info

Callsign ANA315
Flight time 0h 43m
Altitude 28000
Route BEKLA Y885 URUSI
Aircraft A21N/M-SDE2E3FGHIRWXY/LB1

Departure

Time 2026-04-24 03:41
Airport Tokyo Haneda International Airport (RJTT)

Arrival

Time 2026-04-24 04:25
Airport Toyama Kitokito Airport (RJNT)
Time Latitude Longitude Altitude Speed Heading
2026-04-24 03:01 35.55501 139.78934 32 ft 0 kts 330°
2026-04-24 03:22 35.55492 139.78940 32 ft 4 kts 330°
2026-04-24 03:22 35.55469 139.78956 32 ft 4 kts 330°
2026-04-24 03:22 35.55441 139.78975 32 ft 4 kts 343°
2026-04-24 03:22 35.55420 139.78973 32 ft 5 kts 42°
2026-04-24 03:23 35.55409 139.78957 32 ft 4 kts 61°
2026-04-24 03:23 35.55404 139.78945 33 ft 1 kts 60°
2026-04-24 03:33 35.55405 139.78946 33 ft 0 kts 60°
2026-04-24 03:34 35.55413 139.78964 32 ft 6 kts 60°
2026-04-24 03:34 35.55437 139.79015 32 ft 8 kts 60°
2026-04-24 03:34 35.55468 139.79082 31 ft 10 kts 60°
2026-04-24 03:34 35.55501 139.79161 31 ft 12 kts 89°
2026-04-24 03:35 35.55431 139.79223 32 ft 14 kts 150°
2026-04-24 03:35 35.55341 139.79285 32 ft 16 kts 150°
2026-04-24 03:35 35.55242 139.79355 32 ft 17 kts 150°
2026-04-24 03:35 35.55174 139.79402 32 ft 18 kts 150°
2026-04-24 03:37 35.55166 139.79408 32 ft 26 kts 150°
2026-04-24 03:37 35.55020 139.79514 33 ft 22 kts 150°
2026-04-24 03:37 35.54900 139.79598 31 ft 15 kts 150°
2026-04-24 03:37 35.54887 139.79607 31 ft 15 kts 150°
2026-04-24 03:38 35.54833 139.79645 31 ft 18 kts 150°
2026-04-24 03:38 35.54719 139.79727 30 ft 20 kts 150°
2026-04-24 03:38 35.54598 139.79813 30 ft 21 kts 150°
2026-04-24 03:38 35.54469 139.79905 28 ft 22 kts 150°
2026-04-24 03:39 35.54334 139.80001 27 ft 23 kts 150°
2026-04-24 03:39 35.54213 139.80084 26 ft 17 kts 149°
2026-04-24 03:39 35.54216 139.80209 30 ft 12 kts 58°
2026-04-24 03:39 35.54244 139.80265 32 ft 7 kts 57°
2026-04-24 03:40 35.54294 139.80285 33 ft 5 kts 329°
2026-04-24 03:40 35.54299 139.80282 33 ft 0 kts 329°
2026-04-24 03:40 35.54314 139.80271 33 ft 17 kts 329°
2026-04-24 03:40 35.54641 139.80042 34 ft 91 kts 330°
2026-04-24 03:41 35.55382 139.79508 33 ft 153 kts 327°
2026-04-24 03:41 35.56411 139.78816 363 ft 169 kts 332°
2026-04-24 03:41 35.57401 139.78076 1019 ft 167 kts 335°
2026-04-24 03:41 35.58577 139.77875 1388 ft 181 kts 14°
2026-04-24 03:42 35.59680 139.78670 1829 ft 193 kts 49°
2026-04-24 03:42 35.60231 139.80058 2293 ft 208 kts 72°
2026-04-24 03:43 35.60439 139.80979 2481 ft 221 kts 72°
2026-04-24 03:43 35.60872 139.82897 2985 ft 240 kts 73°
2026-04-24 03:43 35.61070 139.84983 3650 ft 252 kts 87°
2026-04-24 03:44 35.61035 139.87159 4441 ft 257 kts 88°
2026-04-24 03:44 35.60991 139.89372 5231 ft 262 kts 87°
2026-04-24 03:44 35.60989 139.91626 5985 ft 265 kts 82°
2026-04-24 03:44 35.61484 139.93792 6678 ft 265 kts 58°
2026-04-24 03:45 35.62688 139.95489 7324 ft 267 kts 33°
2026-04-24 03:45 35.64386 139.96376 7971 ft 269 kts
2026-04-24 03:45 35.66258 139.96553 8664 ft 272 kts
2026-04-24 03:45 35.68171 139.96607 9354 ft 277 kts 359°
2026-04-24 03:46 35.70076 139.96388 9988 ft 282 kts 344°
2026-04-24 03:46 35.71904 139.95451 10363 ft 294 kts 325°
2026-04-24 03:46 35.73428 139.93682 10623 ft 310 kts 305°
2026-04-24 03:46 35.74369 139.91236 10857 ft 327 kts 284°
2026-04-24 03:47 35.74748 139.88398 11091 ft 345 kts 277°
2026-04-24 03:47 35.75038 139.85398 11313 ft 362 kts 277°
2026-04-24 03:47 35.75359 139.82263 11519 ft 377 kts 278°
2026-04-24 03:47 35.75718 139.79020 11829 ft 386 kts 278°
2026-04-24 03:48 35.76095 139.75737 12304 ft 389 kts 278°
2026-04-24 03:48 35.76549 139.72451 12861 ft 390 kts 283°
2026-04-24 03:48 35.77304 139.69229 13482 ft 392 kts 287°
2026-04-24 03:48 35.78115 139.66027 14022 ft 392 kts 287°
2026-04-24 03:49 35.78930 139.62812 14476 ft 394 kts 286°
2026-04-24 03:49 35.79743 139.59583 15003 ft 396 kts 286°
2026-04-24 03:49 35.80561 139.56332 15591 ft 398 kts 286°
2026-04-24 03:49 35.81372 139.53065 16163 ft 399 kts 285°
2026-04-24 03:50 35.82185 139.49785 16723 ft 401 kts 285°
2026-04-24 03:50 35.82774 139.46423 17209 ft 402 kts 276°
2026-04-24 03:50 35.82928 139.42981 17710 ft 404 kts 270°
2026-04-24 03:50 35.82970 139.39514 18189 ft 405 kts 270°
2026-04-24 03:51 35.83007 139.36041 18591 ft 407 kts 270°
2026-04-24 03:51 35.83050 139.32548 19003 ft 408 kts 269°
2026-04-24 03:51 35.83096 139.29051 19430 ft 410 kts 269°
2026-04-24 03:51 35.83149 139.25537 19866 ft 410 kts 269°
2026-04-24 03:52 35.83211 139.22019 20261 ft 412 kts 270°
2026-04-24 03:52 35.83554 139.18553 20622 ft 416 kts 278°
2026-04-24 03:52 35.84427 139.15125 21002 ft 424 kts 288°
2026-04-24 03:52 35.85835 139.11890 21467 ft 432 kts 297°
2026-04-24 03:53 35.87474 139.08763 21872 ft 436 kts 297°
2026-04-24 03:53 35.89141 139.05628 22266 ft 439 kts 297°
2026-04-24 03:53 35.90813 139.02464 22669 ft 440 kts 296°
2026-04-24 03:53 35.92480 138.99287 23048 ft 442 kts 296°
2026-04-24 03:54 35.94143 138.96096 23413 ft 444 kts 296°
2026-04-24 03:54 35.95808 138.92893 23852 ft 443 kts 296°
2026-04-24 03:54 35.97461 138.89702 24387 ft 438 kts 295°
2026-04-24 03:54 35.99087 138.86566 24925 ft 430 kts 295°
2026-04-24 03:55 36.00688 138.83473 25476 ft 424 kts 295°
2026-04-24 03:55 36.02259 138.80428 26067 ft 418 kts 294°
2026-04-24 03:55 36.03820 138.77426 26638 ft 412 kts 294°
2026-04-24 03:55 36.05356 138.74474 27283 ft 405 kts 294°
2026-04-24 03:56 36.06865 138.71556 27784 ft 400 kts 293°
2026-04-24 03:56 36.08353 138.68673 27990 ft 397 kts 294°
2026-04-24 03:56 36.09842 138.65784 28036 ft 398 kts 294°
2026-04-24 03:57 36.12814 138.60002 28042 ft 400 kts 294°
2026-04-24 03:57 36.15801 138.54196 28037 ft 399 kts 294°
2026-04-24 03:58 36.18789 138.48384 28032 ft 401 kts 294°
2026-04-24 03:58 36.21776 138.42549 28038 ft 402 kts 294°
2026-04-24 03:59 36.24789 138.36694 28037 ft 405 kts 294°
2026-04-24 03:59 36.27784 138.30789 28039 ft 405 kts 294°
2026-04-24 04:00 36.30803 138.24860 28038 ft 407 kts 295°
2026-04-24 04:00 36.33828 138.18936 28031 ft 411 kts 295°
2026-04-24 04:01 36.36873 138.12965 28032 ft 408 kts 294°
2026-04-24 04:01 36.39913 138.07014 28030 ft 408 kts 294°
2026-04-24 04:02 36.42942 138.01042 28040 ft 409 kts 294°
2026-04-24 04:02 36.45963 137.95073 28033 ft 407 kts 294°
2026-04-24 04:03 36.48894 137.89007 28053 ft 408 kts 291°
2026-04-24 04:03 36.51610 137.82830 28062 ft 407 kts 291°
2026-04-24 04:04 36.54327 137.76645 28066 ft 409 kts 291°
2026-04-24 04:04 36.57043 137.70443 28069 ft 408 kts 291°
2026-04-24 04:05 36.59746 137.64263 28094 ft 405 kts 291°
2026-04-24 04:05 36.62444 137.58093 28073 ft 409 kts 291°
2026-04-24 04:06 36.65155 137.51836 28110 ft 412 kts 291°
2026-04-24 04:06 36.67896 137.45561 28091 ft 414 kts 291°
2026-04-24 04:07 36.70644 137.39250 27991 ft 411 kts 291°
2026-04-24 04:07 36.72001 137.36122 27570 ft 412 kts 291°
2026-04-24 04:07 36.73366 137.32970 27279 ft 414 kts 291°
2026-04-24 04:07 36.74730 137.29805 26872 ft 413 kts 291°
2026-04-24 04:08 36.75630 137.27723 26337 ft 411 kts 292°
2026-04-24 04:08 36.76984 137.24592 25365 ft 411 kts 292°
2026-04-24 04:08 36.78346 137.21429 24194 ft 417 kts 293°
2026-04-24 04:08 36.79841 137.18296 23026 ft 423 kts 300°
2026-04-24 04:09 36.81749 137.15469 21856 ft 431 kts 311°
2026-04-24 04:09 36.84128 137.13120 21286 ft 443 kts 322°
2026-04-24 04:09 36.86888 137.11371 20731 ft 445 kts 334°
2026-04-24 04:09 36.89830 137.10231 20122 ft 440 kts 340°
2026-04-24 04:10 36.92757 137.09230 19498 ft 432 kts 341°
2026-04-24 04:10 36.95631 137.08237 18879 ft 426 kts 341°
2026-04-24 04:10 36.98470 137.07236 18194 ft 422 kts 341°
2026-04-24 04:11 37.04135 137.05485 16687 ft 421 kts 352°
2026-04-24 04:11 37.07031 137.05750 16158 ft 416 kts 10°
2026-04-24 04:11 37.09681 137.07076 15831 ft 406 kts 27°
2026-04-24 04:11 37.11822 137.09265 15501 ft 392 kts 46°
2026-04-24 04:12 37.13260 137.12073 15143 ft 376 kts 66°
2026-04-24 04:12 37.13877 137.15186 14734 ft 362 kts 86°
2026-04-24 04:12 37.13632 137.18253 14295 ft 349 kts 108°
2026-04-24 04:12 37.12714 137.20991 13969 ft 335 kts 121°
2026-04-24 04:13 37.11463 137.23401 13607 ft 327 kts 128°
2026-04-24 04:13 37.10156 137.25687 13192 ft 326 kts 128°
2026-04-24 04:13 37.08668 137.27819 12781 ft 324 kts 135°
2026-04-24 04:13 37.07052 137.29762 12350 ft 321 kts 144°
2026-04-24 04:14 37.05051 137.30976 11906 ft 315 kts 171°
2026-04-24 04:14 37.02933 137.30988 11515 ft 307 kts 194°
2026-04-24 04:14 37.00870 137.30320 11146 ft 306 kts 199°
2026-04-24 04:14 36.98824 137.29585 10771 ft 306 kts 198°
2026-04-24 04:15 36.96776 137.28875 10436 ft 305 kts 197°
2026-04-24 04:15 36.94728 137.28192 10084 ft 304 kts 196°
2026-04-24 04:15 36.92673 137.27525 9675 ft 305 kts 195°
2026-04-24 04:15 36.90612 137.26864 9253 ft 306 kts 195°
2026-04-24 04:16 36.88550 137.26205 8847 ft 306 kts 195°
2026-04-24 04:16 36.86491 137.25552 8459 ft 304 kts 194°
2026-04-24 04:16 36.84448 137.24890 8082 ft 302 kts 197°
2026-04-24 04:16 36.82581 137.23759 7694 ft 298 kts 215°
2026-04-24 04:17 36.80921 137.22206 7328 ft 298 kts 218°
2026-04-24 04:17 36.79297 137.20626 6936 ft 296 kts 218°
2026-04-24 04:17 36.77679 137.19063 6533 ft 291 kts 218°
2026-04-24 04:17 36.76108 137.17560 6281 ft 279 kts 217°
2026-04-24 04:18 36.74592 137.16120 6125 ft 269 kts 217°
2026-04-24 04:18 36.73128 137.14732 5975 ft 259 kts 217°
2026-04-24 04:18 36.71709 137.13391 5822 ft 257 kts 217°
2026-04-24 04:18 36.70291 137.12053 5586 ft 253 kts 217°
2026-04-24 04:19 36.68911 137.10751 5372 ft 244 kts 217°
2026-04-24 04:19 36.67605 137.09520 5225 ft 226 kts 217°
2026-04-24 04:19 36.66394 137.08380 5098 ft 212 kts 216°
2026-04-24 04:19 36.65253 137.07300 4871 ft 201 kts 217°
2026-04-24 04:20 36.64110 137.06347 4476 ft 196 kts 203°
2026-04-24 04:20 36.62829 137.05885 4120 ft 185 kts 184°
2026-04-24 04:20 36.61599 137.05868 3904 ft 171 kts 169°
2026-04-24 04:20 36.60488 137.06212 3674 ft 155 kts 154°
2026-04-24 04:21 36.59563 137.06791 3356 ft 146 kts 141°
2026-04-24 04:21 36.58798 137.07563 2970 ft 143 kts 130°
2026-04-24 04:21 36.58239 137.08557 2534 ft 138 kts 111°
2026-04-24 04:21 36.58030 137.09691 2370 ft 134 kts 95°
2026-04-24 04:22 36.57954 137.10854 2279 ft 135 kts 86°
2026-04-24 04:22 36.58085 137.11989 2027 ft 132 kts 72°
2026-04-24 04:22 36.58359 137.13089 1894 ft 135 kts 69°
2026-04-24 04:22 36.58642 137.14199 1681 ft 134 kts 67°
2026-04-24 04:23 36.58937 137.15298 1456 ft 134 kts 65°
2026-04-24 04:23 36.59308 137.16341 1249 ft 129 kts 49°
2026-04-24 04:23 36.59981 137.17075 1024 ft 127 kts 28°
2026-04-24 04:23 36.60774 137.17489 828 ft 125 kts 15°
2026-04-24 04:24 36.61612 137.17786 588 ft 124 kts 12°
2026-04-24 04:24 36.62448 137.18028 437 ft 123 kts 12°
2026-04-24 04:24 36.63276 137.18280 263 ft 123 kts 12°
2026-04-24 04:24 36.64116 137.18529 94 ft 124 kts 12°
2026-04-24 04:25 36.64843 137.18742 75 ft 74 kts 13°
2026-04-24 04:25 36.65116 137.18824 82 ft 28 kts 13°
2026-04-24 04:25 36.65314 137.18884 85 ft 30 kts 13°
2026-04-24 04:25 36.65524 137.18947 83 ft 32 kts 13°
2026-04-24 04:26 36.65658 137.19035 83 ft 19 kts 27°
2026-04-24 04:26 36.65636 137.18976 85 ft 17 kts 188°
2026-04-24 04:26 36.65514 137.18944 84 ft 19 kts 194°
2026-04-24 04:26 36.65379 137.18903 84 ft 21 kts 193°
2026-04-24 04:27 36.65231 137.18858 84 ft 23 kts 193°
2026-04-24 04:27 36.65071 137.18812 81 ft 24 kts 193°
2026-04-24 04:27 36.64899 137.18760 71 ft 26 kts 194°
2026-04-24 04:27 36.64718 137.18704 69 ft 28 kts 193°
2026-04-24 04:28 36.64572 137.18664 82 ft 17 kts 178°
2026-04-24 04:28 36.64514 137.18767 80 ft 13 kts 135°
2026-04-24 04:28 36.64451 137.18778 82 ft 8 kts 155°
2026-04-24 04:28 36.64422 137.18821 82 ft 6 kts 124°
2026-04-24 04:29 36.64409 137.18841 85 ft 1 kts 129°
2026-04-24 04:29 36.64408 137.18844 85 ft 0 kts 129°